Regional Weather Roundup
Issued by NWS

Home | Current Version | Previous Version | Text Only | Print | Product List | Glossary On
Versions: 1 2 3 4 5 6 7 8 9 10 11 12 13 14 15 16 17 18 19 20 21 22 23 24 25 26 27 28 29 30 31 32 33 34 35 36 37 38 39 40 41 42 43 44 45 46 47 48 49 50
000
ASUS44 KLIX 140712
RWRLA
LOUISIANA WEATHER ROUNDUP
NATIONAL WEATHER SERVICE NEW ORLEANS LA
100 AM CST THU DEC 14 2017

NOTE: "FAIR" INDICATES FEW OR NO CLOUDS BELOW 12,000 FEET WITH NO
      SIGNIFICANT WEATHER AND/OR OBSTRUCTIONS TO VISIBILITY.
      SKY/WX - SKY CONDITION AND SIGNIFICANT WEATHER.
      TMP - AIR TEMPERATURE.    DP   - DEWPOINT TEMPERATURE.
      RH  - RELATIVE HUMIDITY.  PRES - PRESSURE.
      HX  - HEAT INDEX.         WCI  - WIND CHILL INDEX.

*  THESE STATIONS ARE NOT NWS OR FAA STATIONS AND ARE NOT UNDER
   NWS QUALITY CONTROL.

LAZ040-048-061>063-065-066-069-140800-
SOUTHEAST LOUISIANA

CITY           SKY/WX    TMP DP  RH WIND       PRES   REMARKS
N.O. INTL ARPT MOCLDY    48  44  86 CALM      29.98F
N.O. LAKEFRONT MOCLDY    51  45  79 SW6       29.99S
N.O. DOWNTOWN* FAIR      52  43  71 S3        29.99F
RESERVE*       FAIR      47  41  80 CALM      29.98S
SLIDELL        PTCLDY    44  41  89 CALM      29.98F
BATON ROUGE    CLOUDY    46  42  86 SW3       29.97F
BOOTHVILLE     PTCLDY    54  51  90 CALM      29.99F
BELLE CHASSE   CLOUDY    40  40 100 CALM      29.98F
BOGALUSA*      FAIR      39  36  89 MISG      29.99S
GALLIANO*      MOSUNNY   39  37  91 CALM      29.99S
NEW ROADS*     FAIR      40  38  93 CALM      29.98S
GONZALES*      FAIR      44  41  91 CALM      29.98S
HAMMOND*       CLOUDY    41  39  93 CALM      29.99S
HOUMA*         CLOUDY    42  41  95 CALM      29.98F
PORT FOURCHON* SUNNY     55  52  88 NW3       30.00R

$$

LAZ041-044-053-054-140800-
SOUTHWEST LOUISIANA

CITY           SKY/WX    TMP DP  RH WIND       PRES   REMARKS
LAKE CHARLES   CLOUDY    45  43  93 CALM      29.96S
LAFAYETTE      CLOUDY    47  45  93 S3        29.97F
PATTERSON      MOCLDY    43  43 100 CALM      29.98F
SALT POINT       N/A     48  46  93 CALM      29.97F
NEW IBERIA     CLOUDY    44  41  89 CALM      29.98F
CHENAULT AIRPK PTCLDY    42  40  90 CALM      29.97S

$$

LAZ027-028-140800-
CENTRAL LOUISIANA

CITY           SKY/WX    TMP DP  RH WIND       PRES   REMARKS
FORT POLK      CLOUDY    42  37  80 CALM      29.95S
ALEXANDRIA INT MOCLDY    44  35  70 CALM      29.94S
ALEXANDRIA     CLOUDY    35  34  96 CALM      29.95F

$$

LAZ001-002-140800-
NORTHWEST LOUISIANA

CITY           SKY/WX    TMP DP  RH WIND       PRES   REMARKS
SHREVEPORT     CLOUDY    38  33  82 CALM      29.92S
BARKSDALE AFB  PTCLDY    37  30  77 CALM      29.92F
DTN SHREVEPORT CLOUDY    46  34  62 SW3       29.92F

$$

LAZ014-016-140800-
NORTHEAST LOUISIANA

CITY           SKY/WX    TMP DP  RH WIND       PRES   REMARKS
MONROE         PTCLDY    42  32  67 S5        29.95S
TALLULAH       CLOUDY    35  29  78 CALM      29.95F

$$




USA.gov is the U.S. government's official web portal to all federal, state and local government web resources and services.